Location: Waco, TX
(31.5480°N, 97.1670°W)
Time: 04:20:35
(UTC-05:00)

ISS - Pass Details

Date: 10 May 2021
Orbit: 417 x 422 km, 51.6° (Epoch: 15 May)

Event Time Altitude Azimuth Distance (km) Brightness Sun altitude
Rises 00:16:04 0° 249° (WSW) 2,348 - -38.1°
Reaches altitude 10° 00:18:23 10° 262° (W) 1,489 - -38.2°
Maximum altitude 00:21:15 26° 321° (NW) 865 - -38.4°
Drops below altitude 10° 00:24:07 10° 21° (NNE) 1,497 - -38.6°
Sets 00:26:27 0° 34° (NE) 2,364 - -38.8°
